Strait of Georgia - north of Nanaimo: Past 24 Hour Conditions

 

Sentry Shoal - 46131

11:00 AM PDT 21 October 2017Buoy position: 49.92N 125.0W
Disclaimer

This table is a summary of hourly weather conditions for the past 24 hours.
Please note that these observations might not always be representative of weather conditions over their associated marine area.

Date / Time
(PDT)
Wind(knots) Wave height(m) Wave period(s) Pressure(kPa) Air tempC) Water tempC)
21 October 2017
11:00 ESE 25 gust 29 1.4 5.0 100.4 9 10
10:00 ESE 23 gust 27 1.2 5.0 100.4 9 10
9:00 ESE 21 gust 23 1.3 5.0 100.5 9 10
8:00 ESE 18 gust 21 1.4 5.0 100.5 9 10
7:00 SE 21 gust 27 1.3 4.0 100.5 9 10
6:00 SE 23 gust 31 1.2 4.0 100.6 10 10
5:00 SE 23 gust 27 1.0 4.0 100.7 10 11
4:00 SE 21 gust 27 0.7 3.0 100.8 10 11
3:00 ESE 19 gust 23 0.6 3.0 100.9 10 11
2:00 SE 16 gust 19 0.5 3.0 100.9 10 11
1:00 SE 16 gust 19 0.4 3.0 101.0 10 11
0:00 SSE 12 gust 14 0.3 3.0 101.0 10 11
20 October 2017
23:00 ESE 12 gust 16 0.2 2.0 101.0 10 11
22:00 ESE 10 gust 12 0.1 5.0 101.0 10 11
21:00 SE 4 gust 6 0.1 5.0 101.0 10 11
20:00 ESE 4 gust 6 0.1 5.0 100.9 10 11
19:00 calm 0.1 2.0 100.9 9 11
18:00 W 6 gust 8 0.1 3.0 100.8 9 11
17:00 calm 0.2 3.0 100.8 10 11
16:00 NNW 8 gust 10 0.4 3.0 100.7 10 11
15:00 NNW 12 gust 18 0.3 3.0 100.6 10 11
14:00 NNW 14 gust 16 0.3 3.0 100.6 9 11
13:00 N 12 gust 16 0.2 2.0 100.5 10 11
12:00 NNW 12 gust 12 0.2 2.0 100.4 10 11
11:00 NNW 8 gust 10 0.2 2.0 100.3 10 11

Zoom-in to make a selection

Map of Pacific - Georgia Basin marine weather areas Tsawwassen Ferry Terminal Sentry Shoal - 46131 Halibut Bank - 46146 La Perouse Bank - 46206 Discovery Island Esquimalt Harbour Kelp Reefs Malahat Race Rocks Lightstation Saturna Island Sheringham Point University of Victoria Victoria Gonzales Victoria Int'l Airport Ballenas Islands Campbell River Airport Comox Airport Entrance Island Fanny Island Nanaimo Airport Sisters Islets Estevan Point Tofino Airport Grief Point Powell River Airport Sechelt Point Atkinson Sand Heads Lightstation Vancouver Harbour Vancouver Int'l Airport West Vancouver Port Alberni Howe Sound - Pam Rocks Squamish Airport
Legend:
buoy Buoy
land station Land Station

Pacific - Georgia Basin Area

Another Region

What we are doing

Features

Summer 2017: Significant weather across Canada

By analyzing weather events, ECCC is collecting more information as to how our climate is changing.

Date modified: